Regional Weather Roundup
Issued by NWS

Home | Current Version | Previous Version | Text Only | Print | Product List | Glossary Off
Versions: 1 2 3 4 5 6 7 8 9 10 11 12 13 14 15 16 17 18 19 20 21 22 23 24 25 26 27 28 29 30 31 32 33 34 35 36 37 38 39 40 41 42 43 44 45 46 47 48 49 50

000
ASUS43 KLOT 010306
RWRIL

ILLINOIS REGIONAL WEATHER ROUNDUP
NATIONAL WEATHER SERVICE CHICAGO/ROMEOVILLE IL
900 PM CST SAT JAN 31 2015

NOTE: "FAIR" INDICATES FEW OR NO CLOUDS BELOW 12,000 FEET WITH NO
SIGNIFICANT WEATHER AND/OR OBSTRUCTIONS TO VISIBILITY.

* THESE STATIONS ARE NOT UNDER NWS QUALITY CONTROL. THEY ALSO MAY NOT
  REPORT WEATHER SUCH AS PRECIPITATION OR FOG.

ILZ001-002-007-009-015-016-024-010400-
NORTHWEST ILLINOIS

CITY           SKY/WX    TMP DP  RH WIND       PRES   REMARKS
MOLINE         RAIN      33  32  96 CALM      30.10F FOG
STERLING*        N/A    N/A N/A N/A MISG        N/A
SAVANNA*       LGT SNOW  33  32  96 CALM      30.12S
$$

ILZ003-004-008-010-011-017-018-010400-
NORTH CENTRAL ILLINOIS

CITY           SKY/WX    TMP DP  RH WIND       PRES   REMARKS
ROCKFORD       LGT SNOW  31  28  89 E7        30.14F FOG     WCI  24
FREEPORT*      LGT SNOW  30  29  96 E7        30.14F WCI  23
ROCHELLE*      LGT SNOW  32  32 100 SE3       30.13F
DE KALB*       MIX PCPN  31  31  99 E3        30.13F VSB 1
PERU*          LGT RAIN  33  33  99 S5        30.14F WCI  29
$$

ILZ005-006-012>014-019>023-010400-
NORTHEAST ILLINOIS

CITY           SKY/WX    TMP DP  RH WIND       PRES   REMARKS
CHICAGO-OHARE  LGT SNOW  31  29  92 NE8       30.14F FOG     WCI  23
CHICAGO-MIDWAY LGT SNOW  35  31  85 CALM      30.15F FOG
AURORA         LGT SNOW  33  30  88 SE3       30.14F VSB 3/4
LANSING*       LGT SNOW  32  32  99 S3        30.16F
JOLIET*        HVY RAIN  32  32  99 CALM      30.15F
WAUKEGAN       LGT SNOW  30  28  92 NE7       30.16F FOG     WCI  23
DUPAGE AIRPORT LGT SNOW  33  31  92 E3        30.13F FOG
KANKAKEE*      DRIZZLE   33  32  96 S9        30.17F WCI  25
WHEELING       LGT SNOW  31  27  85 CALM      30.17F FOG
MORRIS*        MIX PCPN  33  33 100 SW5       30.15S WCI  29
ROMEOVILLE*    LGT SNOW  32  32 100 S3        30.14F
NORTHERLY ISL    N/A     32  28  86 NE1         N/A
$$

LMZ740>746-010400-
SOUTHERN LAKE MICHIGAN

STATION/POSITION SKY/WX   TEMP    WIND        PRES    VSBY  WAVE
                          AIR SEA DIR/SP/G                  HT/PER
                          (F)     (DEG/KT/KT) (MB)    (MI)  (FT/S)
WAUKEGAN HARBOR            31      50/ 12/ 13   N/A
HARRISON CRIB              32      70/  7/  9   N/A
BURNHAM HARBOR             32      60/  4       N/A
CALUMET HARBOR             33        CALM       N/A
MICHIGAN CITY              33     200/  2/  2   N/A
$$

ILZ025>027-034>036-040-047-049-050-058-095>099-010400-
WEST-CENTRAL ILLINOIS

CITY           SKY/WX    TMP DP  RH WIND       PRES   REMARKS
QUINCY         LGT RAIN  34  32  92 SE12      30.09F FOG     WCI  25
GALESBURG*     RAIN      33  33 100 SE6       30.12S WCI  28
MACOMB*        LGT SNOW  32  32 100 SE6       30.14F WCI  27
JACKSONVILLE*  LGT RAIN  37  34  90 SE6       30.14F WCI  32
PITTSFIELD*    HVY RAIN  35  33  94 SE9       30.12F WCI  27
$$

ILZ028>032-037-038-041>044-048-051>054-059>061-010400-
CENTRAL ILLINOIS

CITY           SKY/WX    TMP DP  RH WIND       PRES   REMARKS
PONTIAC        LGT SNOW  34  33  99 S5        30.16F WCI  30
BLOOMINGTON    LGT RAIN  33  33 100 S7        30.16F VSB 1   WCI  27
DECATUR        CLOUDY    34  32  92 SE5       30.17F WCI  30
PEORIA         LGT SNOW  35  33  92 S10       30.15S FOG     WCI  27
LACON*         MIX PCPN  32  31  97 CALM      30.14F
LINCOLN*       CLOUDY    35  34  96 S6        30.17F FOG     WCI  30
SPRINGFIELD    LGT RAIN  35  31  85 SE9       30.15F WCI  28
TAYLORVILLE    DRIZZLE   34  32  93 SE7       30.16F WCI  28
$$

ILZ033-039-045-046-055>057-062-063-010400-
EAST-CENTRAL ILLINOIS

CITY           SKY/WX    TMP DP  RH WIND       PRES   REMARKS
CHAMPAIGN      LGT SNOW  33  32  96 S10       30.18S FOG     WCI  25
DANVILLE*      RAIN      32  32  99 SE6       30.16F WCI  26
RANTOUL*       HVY RAIN  34  33  97 SE6       30.17F WCI  29
MATTOON        CLOUDY    33  31  92 SE6       30.17F WCI  28
PARIS*         DRIZZLE   33  32  98 S7        30.21S WCI  27
$$

ILZ079-100>102-010400-
SOUTHWEST ILLINOIS

CITY           SKY/WX    TMP DP  RH WIND       PRES   REMARKS
BELLEVILLE     CLOUDY    38  29  68 E8        30.13F WCI  32
CAHOKIA*       CLOUDY    40  28  62 SE8       30.13F
SPARTA*        CLOUDY    37  28  69 CALM      30.15F
$$

ILZ064>066-069>071-074>076-080>082-084>086-088>090-092>094-010400-
SOUTH-CENTRAL ILLINOIS

CITY           SKY/WX    TMP DP  RH WIND       PRES   REMARKS
CARBONDALE     CLOUDY    39  25  57 SE5       30.15F
CAIRO*         CLOUDY    42  28  57 CALM      30.15R
EFFINGHAM*     CLOUDY    35  28  74 NE3       30.19F
MARION         CLOUDY    41  25  52 E5        30.15F
MT. VERNON     CLOUDY    37  27  65 CALM      30.17F
CENTRALIA*     CLOUDY    37  28  71 NE3       30.16F
SALEM*         CLOUDY    40  29  64 S5        30.18R
METROPOLIS*    CLOUDY    42  27  55 SE3       30.13F
$$

ILZ067-068-072-073-078-083-087-091-010400-
SOUTHEAST ILLINOIS

CITY           SKY/WX    TMP DP  RH WIND       PRES   REMARKS
LAWRENCEVILLE  CLOUDY    36  29  75 E6        30.20F WCI  31
FLORA*         CLOUDY    36  30  81 S3        30.20R
FAIRFIELD*     CLOUDY    38  29  72 CALM      30.17R
HARRISBURG*    CLOUDY    39  29  68 S3        30.19S
ROBINSON*      CLOUDY    35  32  90 SE3       30.22F
CARMI*         CLOUDY    40  31  71 SE5       30.19S
$$

ABBREVIATIONS USED IN REMARKS
   TC - TEMPERATURE IN CELSIUS
  WCI - WIND CHILL INDEX
   HX - HEAT INDEX
  VSB - VISIBILITY
$$




USA.gov is the U.S. government's official web portal to all federal, state and local government web resources and services.